Helicity
63 94 200 269 231 227 230 250 264 277 246 232 256 237 240 247 235 197 196 198 180 145 158 142 112 86 79 87 92 109 136 122 104 94 90 79 76 95 86 92 106 97 113
127 138 184 164 236 224 281 308 248 257 206 267 241 269 235 229 222 204 207 195 170 152 133 117 101 90 84 84 97 97 95 96 91 86 70 78 75 85 94 94 111 110 124
79 160 203 202 185 222 234 318 266 222 318 283 234 229 240 239 201 191 191 184 175 148 121 98 77 61 67 78 90 99 117 143 106 94 106 73 53 92 99 97 97 94 87
149 103 113 141 162 160 217 282 269 314 289 201 211 229 225 216 179 183 177 172 160 128 101 73 67 61 72 81 80 92 116 127 97 97 96 73 73 90 99 91 98 88 80
107 93 96 165 179 182 204 188 178 251 294 255 185 199 185 179 151 150 164 168 144 111 85 63 62 88 74 76 80 84 99 107 111 93 66 59 53 62 80 77 73 66 61
88 158 193 239 300 278 325 339 116 119 412 288 167 152 149 172 138 126 147 152 141 110 68 51 35 47 72 79 77 78 87 94 87 68 41 47 31 56 70 62 46 57 69
120 161 211 367 435 353 417 334 334 116 304 324 157 154 171 186 149 114 145 160 137 94 67 71 59 65 73 65 54 58 62 63 44 38 27 30 41 63 52 52 46 49 46
181 247 230 277 347 322 360 341 78 74 208 336 347 166 227 203 171 133 168 153 125 84 76 75 71 57 42 28 22 37 48 39 33 26 28 26 32 43 45 33 40 28 38
174 296 268 268 243 281 236 205 82 112 277 273 330 157 218 225 205 185 171 128 120 101 96 85 57 42 28 19 11 16 23 33 6 3 5 -12 26 27 26 23 26 33 31
170 246 274 211 113 101 76 44 192 118 255 270 257 138 292 317 216 167 141 131 108 96 58 43 40 34 30 15 5 9 21 11 -6 0 -14 -17 19 20 24 28 32 27 26
177 172 199 176 119 27 124 107 128 133 166 179 113 256 236 280 247 183 162 146 124 92 48 46 59 40 31 10 15 22 3 -15 -1 -2 -13 5 15 22 27 23 18 20 19
125 99 66 48 42 72 185 155 80 237 415 284 200 217 294 312 211 248 185 165 145 122 85 44 61 62 48 15 28 13 3 -5 2 -6 -17 0 16 25 19 12 4 9 9
114 98 79 90 116 140 173 150 168 85 108 247 185 189 323 246 272 257 222 182 166 143 117 82 59 44 -1 2 15 -7 -9 -12 -15 -23 -30 -18 7 21 14 -1 4 13 14
91 85 109 101 119 136 136 156 124 123 173 193 141 170 267 250 196 208 181 145 122 96 78 42 7 36 38 41 12 10 4 -13 -28 -29 -36 -24 -9 8 19 8 13 14 11
72 84 97 99 103 117 98 139 196 252 262 21 41 166 212 170 151 176 136 107 131 79 84 72 86 76 62 36 19 22 2 -11 -22 -25 -41 -23 -13 -1 3 25 12 5 12
72 79 115 105 99 78 90 113 113 71 -22 33 104 138 150 119 123 175 102 143 82 68 69 22 76 74 39 28 27 28 14 -9 -14 -25 -47 -41 -8 4 10 13 31 23 22
96 133 133 60 112 69 98 70 52 81 163 191 257 175 195 161 154 96 172 61 64 71 -15 129 89 61 49 46 41 16 7 -1 5 -4 -22 -22 -9 13 12 8 23 27 32
100 98 134 101 109 152 97 84 118 145 191 221 233 192 182 220 216 102 33 45 62 11 6 81 48 50 60 43 28 12 7 23 18 16 11 1 5 21 29 29 19 24 34
69 128 168 58 125 138 124 105 126 132 170 173 263 221 168 202 103 40 52 31 31 5 17 84 46 51 41 38 26 24 24 27 18 19 22 27 29 43 51 38 35 25 33
67 133 90 34 122 113 105 198 145 116 148 89 97 195 121 78 60 28 39 54 32 22 59 86 46 39 46 38 38 26 24 28 31 38 42 62 67 65 74 85 71 54 58
99 128 61 65 79 106 156 179 133 121 130 102 51 84 169 108 125 109 66 39 42 42 60 60 58 52 61 66 83 59 40 34 44 61 86 102 102 111 107 121 116 115 96
89 89 81 46 27 47 95 117 157 229 271 282 229 182 228 189 108 126 48 36 37 73 64 69 77 88 68 103 95 88 68 73 112 121 143 147 139 145 159 134 141 150 130
87 103 112 79 66 51 44 188 245 207 343 441 274 288 297 200 122 47 50 62 66 80 80 69 102 107 105 98 115 108 97 88 82 98 135 170 174 173 166 201 157 150 142
79 78 67 61 78 51 102 124 68 60 125 139 150 255 150 52 83 89 69 57 56 56 35 100 99 141 153 142 150 153 182 181 139 102 99 127 143 152 204 182 183 144 154
79 81 74 52 34 38 97 96 56 83 -7 -38 70 55 -51 -84 -40 -61 -41 -17 26 36 21 -43 124 132 141 182 230 213 239 225 221 215 145 171 160 180 151 160 171 118 160
89 75 66 61 26 4 26 -7 -15 -16 -14 -32 -41 -29 -98 -118 -84 -16 -7 -57 4 43 14 67 84 141 158 160 232 282 296 212 234 263 243 149 202 147 111 146 126 119 124
Wind_Speed
19 10 2 3 5 14 10 10 9 14 17 21 17 13 9 13 14 18 23 29 33 35 37 36 37 38 38 40 41 41 40 42 44 44 46 46 48 48 47 47 46 46 48
19 11 10 9 4 3 7 11 10 15 25 19 18 18 9 6 10 15 21 30 35 36 35 38 38 41 41 40 42 42 43 44 44 43 44 45 45 45 46 46 45 45 45
11 2 6 14 6 4 9 12 14 17 16 19 19 16 9 6 9 16 24 30 34 37 37 38 39 41 41 41 41 42 40 40 40 41 40 41 44 44 45 46 44 44 43
15 4 7 5 7 7 6 12 18 18 18 15 19 12 11 8 11 20 28 32 35 37 38 39 41 41 40 39 38 38 37 36 36 37 37 38 41 43 44 44 45 46 46
18 11 3 8 5 8 4 8 13 22 20 21 15 13 12 11 13 22 27 31 34 35 36 36 37 38 36 36 37 37 36 35 36 36 36 36 40 43 44 45 44 44 44
22 16 19 5 7 8 7 15 10 15 15 19 18 16 16 16 17 21 23 28 31 31 33 32 31 32 34 35 34 33 33 33 33 34 36 38 39 42 42 42 42 41 43
24 10 12 2 7 5 15 22 49 24 19 21 18 16 20 20 18 18 22 25 28 29 32 33 34 33 32 34 34 32 32 32 33 35 36 37 39 39 39 38 39 40 41
17 15 12 4 5 11 16 29 29 26 19 24 19 23 27 24 21 19 19 22 25 30 33 32 31 32 34 35 35 33 32 32 36 35 34 34 36 36 36 37 38 39 39
10 5 9 7 10 12 25 33 35 29 33 27 26 31 33 28 23 20 19 20 25 29 30 31 32 35 36 37 35 31 32 33 33 29 28 30 33 34 33 35 37 38 39
16 6 14 24 24 28 24 26 32 29 48 36 39 35 35 31 27 21 20 22 24 28 31 30 33 34 34 35 36 32 27 28 28 26 26 26 29 31 32 33 35 36 38
19 15 9 14 19 25 22 39 29 37 47 45 43 38 33 31 28 22 19 23 21 24 25 28 30 29 33 32 31 31 24 23 22 20 20 24 26 27 29 31 32 34 36
16 14 11 8 6 7 17 24 24 29 38 41 44 39 34 32 32 24 20 22 20 21 21 25 27 26 23 26 25 25 24 21 17 17 15 20 23 25 27 28 29 32 33
11 11 9 7 7 10 12 20 36 7 38 43 39 37 34 34 30 24 20 19 15 19 17 22 16 17 22 26 23 22 21 18 14 12 15 17 21 23 24 25 27 29 31
8 9 9 8 7 10 11 18 27 12 29 37 41 36 40 33 27 23 21 17 15 15 18 21 18 19 13 20 21 20 16 13 9 11 14 17 19 21 23 24 25 26 28
7 8 9 8 7 8 6 10 20 13 35 63 35 36 35 33 28 25 20 15 12 13 16 19 16 18 14 16 16 16 14 10 11 11 13 17 18 20 22 23 22 23 26
9 8 9 7 6 6 3 9 10 59 67 46 30 33 36 32 31 26 18 9 9 9 8 12 16 16 13 14 12 10 9 9 10 11 12 15 18 19 20 21 21 22 24
13 11 11 8 7 7 8 11 15 38 42 41 34 30 30 29 28 20 15 15 10 6 4 12 17 15 11 8 8 7 7 8 9 10 12 14 15 16 17 17 18 20 22
19 15 10 9 15 8 7 12 16 31 35 37 28 27 28 23 18 22 19 13 9 5 6 12 13 11 10 10 13 18 15 12 11 10 10 11 12 13 12 13 15 17 19
23 20 15 14 7 6 8 11 18 30 28 27 29 28 26 22 23 22 17 12 7 5 2 7 7 9 9 16 20 25 25 24 26 24 16 14 12 12 11 10 11 15 19
25 24 20 16 9 9 9 10 21 15 23 22 34 29 26 25 27 19 15 15 7 7 6 7 8 16 19 25 28 31 31 33 32 27 21 18 13 12 12 13 15 16 17
26 28 28 23 20 19 11 10 17 20 30 24 32 27 28 25 26 23 17 16 14 16 19 15 18 21 34 34 35 41 45 45 42 33 26 24 24 21 18 15 17 20 18
25 31 35 40 41 26 20 10 20 22 25 23 27 25 28 32 27 26 21 19 29 27 27 19 38 36 38 27 36 37 43 50 43 31 32 31 26 25 25 24 22 21 22
29 33 35 42 48 48 41 11 25 25 32 34 35 30 26 33 30 27 30 29 34 29 32 61 39 34 33 30 33 35 38 44 46 43 31 31 31 30 29 30 29 28 27
31 29 32 37 43 45 44 45 48 55 42 26 23 22 22 24 34 41 45 56 51 64 69 51 20 25 31 28 41 41 45 44 48 53 45 46 38 38 37 35 29 28 26
29 30 32 34 39 38 44 52 53 53 60 62 30 57 53 63 76 77 75 71 62 70 74 43 23 32 36 39 39 47 46 50 53 54 60 52 53 45 35 30 30 33 32
27 29 31 34 35 38 42 46 50 50 55 58 59 66 71 72 75 76 72 73 69 68 73 70 69 50 29 30 37 38 42 50 47 43 46 45 50 44 33 34 36 34 33
Wind_Direction
279 271 178 140 188 117 121 95 97 112 120 117 145 148 128 100 88 87 88 89 92 90 87 82 77 73 71 70 67 62 58 57 59 56 56 55 56 52 51 50 48 45 45
293 269 270 250 116 172 114 114 108 117 121 123 155 129 140 124 96 93 93 96 97 92 88 86 82 82 78 72 69 66 64 63 61 57 57 57 56 55 52 50 47 43 40
338 88 250 248 204 216 142 123 125 125 108 125 142 136 153 147 116 106 103 100 98 94 91 86 84 83 80 77 72 69 64 60 60 58 52 52 56 55 54 49 45 42 38
333 23 111 179 212 153 175 151 146 136 122 142 138 149 153 165 137 117 111 106 101 98 96 92 87 84 80 74 71 69 66 62 57 57 53 53 54 55 53 51 47 48 48
315 317 99 147 208 243 189 176 164 148 132 147 179 175 190 159 147 126 116 109 104 101 98 94 92 84 78 72 70 70 67 63 61 58 56 56 56 58 58 54 54 51 47
308 302 292 265 261 263 289 288 237 177 145 149 179 188 162 162 150 133 123 112 105 99 97 93 93 89 79 74 71 69 67 64 61 58 58 60 59 61 58 57 54 48 47
292 276 306 311 327 318 307 290 270 257 169 154 171 190 183 160 164 151 130 115 106 100 97 93 91 88 79 74 72 69 67 65 63 62 61 61 62 61 60 53 51 48 46
283 264 279 305 360 323 293 308 301 241 206 172 173 183 171 162 165 157 140 121 107 102 102 96 90 85 81 78 75 71 69 66 67 65 62 61 66 61 58 56 51 49 44
335 239 248 266 291 313 304 304 304 226 207 178 172 182 173 174 171 163 145 127 108 103 103 100 95 90 85 81 76 70 69 67 66 60 58 61 65 63 58 55 53 48 45
30 320 278 285 286 307 314 320 295 221 193 183 168 178 184 171 177 164 150 128 111 106 109 105 99 92 85 81 79 69 58 61 59 57 55 58 62 60 55 52 49 48 45
43 68 5 303 297 312 334 319 317 190 202 175 161 180 169 178 187 185 163 131 115 106 109 106 97 90 87 81 74 70 58 53 51 46 44 58 58 54 52 50 48 45 43
71 72 52 45 110 19 1 17 35 163 184 187 184 177 180 185 193 183 161 133 117 106 102 105 98 90 74 69 64 66 59 51 40 40 37 51 55 53 52 48 46 43 40
76 91 89 79 56 32 51 70 90 221 163 181 183 192 176 186 193 183 155 137 128 107 100 101 93 77 77 73 69 63 61 52 33 23 39 42 50 52 46 45 43 40 37
81 92 24 43 54 29 41 81 96 149 142 169 193 187 179 179 170 166 157 152 137 114 105 99 94 77 64 70 71 64 47 43 11 17 30 44 44 46 45 44 45 38 34
56 71 70 62 60 80 48 103 118 206 135 139 161 174 172 158 164 171 168 161 144 125 101 87 70 86 77 72 69 64 53 28 22 13 23 42 43 44 48 45 39 33 31
59 83 44 89 41 90 96 128 178 182 145 140 165 165 156 157 147 178 162 180 168 126 103 76 75 82 78 72 60 45 32 21 33 30 23 36 52 55 48 44 38 31 23
66 21 91 93 93 99 132 156 177 209 204 199 196 187 181 158 154 160 187 195 184 121 96 65 69 68 56 357 350 343 355 19 31 35 42 42 54 56 46 38 31 21 17
12 12 45 83 111 109 174 181 188 213 213 206 193 184 188 178 182 166 174 193 190 127 63 72 67 48 353 339 315 292 303 323 337 357 8 22 34 30 35 32 25 19 14
13 22 53 95 113 152 161 165 209 221 218 206 188 172 175 183 174 165 199 198 199 141 70 54 360 346 357 310 299 288 291 298 299 313 333 342 353 0 4 5 2 353 350
16 35 71 93 97 171 194 201 223 203 220 191 166 203 190 183 168 194 209 234 226 256 284 315 317 310 302 287 288 289 292 295 302 312 324 334 339 336 331 332 333 332 335
50 70 98 110 117 134 184 185 216 216 227 199 169 195 187 191 214 221 224 237 251 265 274 281 293 293 280 279 285 284 284 287 296 308 316 319 318 318 314 317 317 320 321
67 87 100 122 130 134 156 232 242 222 224 204 214 195 210 219 220 230 228 242 258 269 274 277 270 280 282 294 295 300 299 294 300 305 308 313 310 308 309 306 306 309 314
108 102 113 125 138 139 142 226 244 234 236 230 228 221 225 239 237 229 243 254 262 268 265 242 274 284 294 299 298 304 308 303 315 317 310 311 310 308 306 308 306 307 306
125 106 109 121 132 139 137 142 147 154 156 222 205 214 200 225 241 243 247 244 247 239 234 267 286 292 295 299 297 296 298 306 310 318 318 321 309 306 307 310 310 308 304
128 121 121 123 133 131 139 148 147 148 160 162 156 163 164 173 199 201 211 232 250 244 240 201 289 290 292 295 295 299 300 302 303 307 313 312 318 311 304 308 310 313 313
133 134 130 135 137 139 143 148 153 152 159 165 168 177 186 192 206 227 238 238 244 249 250 260 265 287 288 290 293 296 298 303 307 310 313 314 318 321 317 318 320 323 324